Volver al catálogo

THORAD AGENA D DEB

ActivoSSO
NORAD 42515·DEBRIS·🇺🇸 United States

Lanzado Apr 8, 1970 desde Vandenberg Space Force Base

Loading…

Próximos Pases (próximas 24 horas)

TLE

ActualizadoSource: Space-Track

Época: Sep 13, 2026, 01:20 UTC

1 42515U 70025RV  26256.05604987  .00000073  00000-0  17545-3 0  9996
2 42515  99.3918 182.8485 0040219 244.3953 115.3025 13.51515681631597

Sigue THORAD AGENA D DEB en tiempo real con AllMySat

Download on the App Store